�N����,����,�g�[���i�䏊�j���x,�g�[�����x,��g�[���i��Q���j���x,����
 2003/01/01, 0:00,10.7,53,8.9,9.4
 2003/01/01, 0:15,10.7,52,8.8,9.4
 2003/01/01, 0:30,10.6,52,8.7,9.4
 2003/01/01, 0:45,10.5,52,8.6,9.4
 2003/01/01, 1:00,10.5,52,8.5,9.4
 2003/01/01, 1:15,10.4,52,8.4,9.3
 2003/01/01, 1:30,10.3,52,8.4,9.3
 2003/01/01, 1:45,10.3,52,8.2,9.3
 2003/01/01, 2:00,10.2,52,8.1,9.3
 2003/01/01, 2:15,10.1,52,8.2,9.3
 2003/01/01, 2:30,10.1,52,8.1,9.2
 2003/01/01, 2:45,10,52,7.8,9.2
 2003/01/01, 3:00,10,51,7.8,9.2
 2003/01/01, 3:15,10.2,51,7.7,9.2
 2003/01/01, 3:30,10.1,51,7.6,9.1
 2003/01/01, 3:45,10,51,7.5,9.1
 2003/01/01, 4:00,9.8,51,7.5,9.1
 2003/01/01, 4:15,9.8,51,7.4,9.1
 2003/01/01, 4:30,9.8,51,7.3,9
 2003/01/01, 4:45,9.6,51,7.2,9
 2003/01/01, 5:00,9.6,51,7.2,9
 2003/01/01, 5:15,9.6,51,7,9
 2003/01/01, 5:30,9.5,51,6.9,8.9
 2003/01/01, 5:45,9.3,52,6.8,8.9
 2003/01/01, 6:00,9.3,51,6.8,8.9
 2003/01/01, 6:15,9.3,51,6.8,8.8
 2003/01/01, 6:30,9.2,52,6.6,8.8
 2003/01/01, 6:45,9.1,52,6.5,8.8
 2003/01/01, 7:00,9.1,52,6.5,8.7
 2003/01/01, 7:15,9,52,6.5,8.7
 2003/01/01, 7:30,8.9,52,6.4,8.7
 2003/01/01, 7:45,8.9,52,6.4,8.6
 2003/01/01, 8:00,8.8,52,6.2,8.6
 2003/01/01, 8:15,8.8,52,6.2,8.6
 2003/01/01, 8:30,8.8,52,6.2,8.5
 2003/01/01, 8:45,8.8,52,6.2,8.5
 2003/01/01, 9:00,8.7,53,6.2,8.5
 2003/01/01, 9:15,8.6,53,6.2,8.4
 2003/01/01, 9:30,8.6,53,6.2,8.4
 2003/01/01, 9:45,8.7,53,6.2,8.4
 2003/01/01,10:00,8.7,53,6.4,8.4
 2003/01/01,10:15,8.7,53,6.7,8.3
 2003/01/01,10:30,8.8,54,7.2,8.3
 2003/01/01,10:45,8.9,54,7.6,8.3
 2003/01/01,11:00,9,54,8.1,8.2
 2003/01/01,11:15,9.1,54,8.5,8.2
 2003/01/01,11:30,9.2,53,8.4,8.2
 2003/01/01,11:45,9.3,53,9,8.2
 2003/01/01,12:00,9.3,53,8.7,8.2
 2003/01/01,12:15,9.4,53,8.7,8.1
 2003/01/01,12:30,9.4,53,8.9,8.1
 2003/01/01,12:45,9.5,53,8.9,8.1
 2003/01/01,13:00,9.5,53,8.9,8.1
 2003/01/01,13:15,9.5,53,9.2,8.1
 2003/01/01,13:30,9.6,53,9.2,8.1
 2003/01/01,13:45,9.6,53,9.4,8.1
 2003/01/01,14:00,9.7,53,9.3,8.1
 2003/01/01,14:15,9.7,53,9.2,8.1
 2003/01/01,14:30,9.8,53,9.2,8
 2003/01/01,14:45,9.7,53,9.2,8
 2003/01/01,15:00,9.8,53,9.2,8
 2003/01/01,15:15,9.8,53,9.3,8
 2003/01/01,15:30,9.8,53,9.2,8
 2003/01/01,15:45,9.8,53,9.2,8
 2003/01/01,16:00,9.8,53,9,8
 2003/01/01,16:15,9.8,54,8.9,8
 2003/01/01,16:30,9.8,54,9,8
 2003/01/01,16:45,9.8,54,8.9,8
 2003/01/01,17:00,9.8,54,8.8,8
 2003/01/01,17:15,9.8,54,8.7,8
 2003/01/01,17:30,9.8,54,8.7,8
 2003/01/01,17:45,9.8,54,8.7,8
 2003/01/01,18:00,9.7,54,8.6,8
 2003/01/01,18:15,9.7,54,8.5,8
 2003/01/01,18:30,9.7,54,8.5,8
 2003/01/01,18:45,9.7,54,8.4,8
 2003/01/01,19:00,9.6,54,8.4,8
 2003/01/01,19:15,9.7,53,8.4,8
 2003/01/01,19:30,9.6,53,8.3,8
 2003/01/01,19:45,9.6,53,8.2,8
 2003/01/01,20:00,9.6,52,8.1,8
 2003/01/01,20:15,9.6,51,8.1,8
 2003/01/01,20:30,9.5,51,8.1,8
 2003/01/01,20:45,9.5,50,8,8
 2003/01/01,21:00,9.5,50,7.9,8
 2003/01/01,21:15,9.4,50,8,8
 2003/01/01,21:30,9.3,50,7.9,8
 2003/01/01,21:45,9.3,50,7.9,8
 2003/01/01,22:00,9.3,51,7.8,8
 2003/01/01,22:15,9.3,52,7.7,8
 2003/01/01,22:30,9.2,52,7.6,8
 2003/01/01,22:45,9.1,53,7.5,8
 2003/01/01,23:00,9.2,53,7.5,8
 2003/01/01,23:15,9.1,53,7.5,8
 2003/01/01,23:30,9.1,54,7.4,8
 2003/01/01,23:45,9.1,54,7.4,8
 2003/01/02, 0:00,9,54,7.2,8
 2003/01/02, 0:15,9,54,7.2,8
 2003/01/02, 0:30,8.9,54,7.2,7.9
 2003/01/02, 0:45,8.9,54,7.1,7.9
 2003/01/02, 1:00,8.8,54,7.1,7.9
 2003/01/02, 1:15,8.8,54,7.1,7.9
 2003/01/02, 1:30,8.8,54,6.9,7.9
 2003/01/02, 1:45,8.8,54,7,7.9
 2003/01/02, 2:00,8.7,55,6.8,7.9
 2003/01/02, 2:15,8.7,55,6.8,7.9
 2003/01/02, 2:30,8.6,55,6.8,7.9
 2003/01/02, 2:45,8.6,54,6.7,7.8
 2003/01/02, 3:00,8.6,54,6.8,7.8
 2003/01/02, 3:15,8.6,54,6.6,7.8
 2003/01/02, 3:30,8.5,54,6.7,7.8
 2003/01/02, 3:45,8.5,54,6.5,7.8
 2003/01/02, 4:00,8.5,54,6.6,7.8
 2003/01/02, 4:15,8.4,55,6.5,7.8
 2003/01/02, 4:30,8.4,55,6.5,7.7
 2003/01/02, 4:45,8.3,54,6.4,7.7
 2003/01/02, 5:00,8.3,54,6.3,7.7
 2003/01/02, 5:15,8.3,54,6.4,7.7
 2003/01/02, 5:30,8.3,54,6.2,7.7
 2003/01/02, 5:45,8.2,54,6.2,7.7
 2003/01/02, 6:00,8.2,54,6.2,7.6
 2003/01/02, 6:15,8.1,54,6.1,7.6
 2003/01/02, 6:30,8.1,54,6.1,7.6
 2003/01/02, 6:45,8.1,54,6.1,7.6
 2003/01/02, 7:00,8.1,54,6,7.6
 2003/01/02, 7:15,8,54,5.9,7.5
 2003/01/02, 7:30,8,54,6,7.5
 2003/01/02, 7:45,7.9,54,5.8,7.5
 2003/01/02, 8:00,7.9,54,5.9,7.5
 2003/01/02, 8:15,7.8,54,5.8,7.5
 2003/01/02, 8:30,7.9,53,5.8,7.4
 2003/01/02, 8:45,7.8,53,5.8,7.4
 2003/01/02, 9:00,7.8,53,5.7,7.4
 2003/01/02, 9:15,7.8,53,5.8,7.4
 2003/01/02, 9:30,7.8,53,5.7,7.4
 2003/01/02, 9:45,7.8,53,5.7,7.3
 2003/01/02,10:00,7.8,53,5.7,7.3
 2003/01/02,10:15,7.8,53,5.8,7.3
 2003/01/02,10:30,7.8,53,5.8,7.3
 2003/01/02,10:45,7.8,54,5.9,7.3
 2003/01/02,11:00,7.8,54,6,7.2
 2003/01/02,11:15,7.8,54,6.2,7.2
 2003/01/02,11:30,7.8,54,6.4,7.2
 2003/01/02,11:45,7.9,53,6.5,7.2
 2003/01/02,12:00,7.9,53,6.9,7.2
 2003/01/02,12:15,8.1,53,7.5,7.2
 2003/01/02,12:30,8.1,53,7.6,7.2
 2003/01/02,12:45,8.1,53,7.6,7.2
 2003/01/02,13:00,8.1,52,7.9,7.1
 2003/01/02,13:15,8.2,52,7.8,7.1
 2003/01/02,13:30,8.2,52,8.2,7.1
 2003/01/02,13:45,8.3,52,9,7.1
 2003/01/02,14:00,8.4,51,9.6,7.1
 2003/01/02,14:15,8.6,51,9.6,7.1
 2003/01/02,14:30,8.6,52,9.3,7.1
 2003/01/02,14:45,8.6,52,8.9,7.1
 2003/01/02,15:00,8.6,52,9,7.1
 2003/01/02,15:15,8.7,52,9.3,7.1
 2003/01/02,15:30,8.8,52,9.4,7.1
 2003/01/02,15:45,8.8,51,9,7.1
 2003/01/02,16:00,8.7,51,8.8,7.1
 2003/01/02,16:15,8.8,51,8.7,7.1
 2003/01/02,16:30,8.6,52,8.6,7.1
 2003/01/02,16:45,8.6,52,8.3,7.1
 2003/01/02,17:00,8.6,52,8.2,7.1
 2003/01/02,17:15,8.6,52,8,7.1
 2003/01/02,17:30,8.6,52,7.9,7.1
 2003/01/02,17:45,8.5,52,7.9,7.1
 2003/01/02,18:00,8.5,52,7.7,7.1
 2003/01/02,18:15,8.5,52,7.5,7.1
 2003/01/02,18:30,8.4,52,7.5,7
 2003/01/02,18:45,8.4,52,7.3,7
 2003/01/02,19:00,8.3,52,7.3,7
 2003/01/02,19:15,8.3,52,7.2,7
 2003/01/02,19:30,8.3,52,7.1,7
 2003/01/02,19:45,8.2,52,6.9,7
 2003/01/02,20:00,8.2,52,6.8,7
 2003/01/02,20:15,8.1,52,6.8,7
 2003/01/02,20:30,8.1,52,6.7,7
 2003/01/02,20:45,8.3,51,6.5,7
 2003/01/02,21:00,8.3,51,6.5,7
 2003/01/02,21:15,8.2,51,6.5,6.9
 2003/01/02,21:30,8.1,52,6.4,6.9
 2003/01/02,21:45,8.1,51,6.2,6.9
 2003/01/02,22:00,8.1,52,6.2,6.9
 2003/01/02,22:15,8,52,6.2,6.9
 2003/01/02,22:30,7.9,52,6.1,6.9
 2003/01/02,22:45,7.9,52,6,6.8
 2003/01/02,23:00,7.8,52,5.9,6.8
 2003/01/02,23:15,7.8,52,5.8,6.8
 2003/01/02,23:30,7.8,52,5.8,6.8
 2003/01/02,23:45,7.7,52,5.7,6.8
 2003/01/03, 0:00,7.6,52,5.6,6.7
 2003/01/03, 0:15,7.6,52,5.5,6.7
 2003/01/03, 0:30,7.6,52,5.5,6.7
 2003/01/03, 0:45,7.6,52,5.4,6.7
 2003/01/03, 1:00,7.5,52,5.3,6.7
 2003/01/03, 1:15,7.5,52,5.2,6.6
 2003/01/03, 1:30,7.4,52,5.3,6.6
 2003/01/03, 1:45,7.4,53,5.1,6.6
 2003/01/03, 2:00,7.3,53,5,6.6
 2003/01/03, 2:15,7.4,52,5.1,6.6
 2003/01/03, 2:30,7.2,53,5,6.5
 2003/01/03, 2:45,7.2,53,4.9,6.5
 2003/01/03, 3:00,7.2,53,4.9,6.5
 2003/01/03, 3:15,7.2,53,4.8,6.5
 2003/01/03, 3:30,7.1,53,4.8,6.4
 2003/01/03, 3:45,7.1,53,4.7,6.4
 2003/01/03, 4:00,7,53,4.7,6.4
 2003/01/03, 4:15,7,53,4.6,6.4
 2003/01/03, 4:30,7,52,4.5,6.3
 2003/01/03, 4:45,6.9,53,4.6,6.3
 2003/01/03, 5:00,6.9,53,4.4,6.3
 2003/01/03, 5:15,6.9,53,4.4,6.3
 2003/01/03, 5:30,6.9,53,4.4,6.2
 2003/01/03, 5:45,6.8,52,4.4,6.2
 2003/01/03, 6:00,6.8,52,4.3,6.2
 2003/01/03, 6:15,6.7,53,4.3,6.2
 2003/01/03, 6:30,6.7,53,4.3,6.1
 2003/01/03, 6:45,6.8,52,4.2,6.1
 2003/01/03, 7:00,6.6,52,4.2,6.1
 2003/01/03, 7:15,6.6,53,4.1,6.1
 2003/01/03, 7:30,6.6,53,4,6
 2003/01/03, 7:45,6.6,53,4,6
 2003/01/03, 8:00,6.6,52,4,6
 2003/01/03, 8:15,6.6,53,4,6
 2003/01/03, 8:30,6.5,53,3.9,5.9
 2003/01/03, 8:45,6.5,53,4,5.9
 2003/01/03, 9:00,6.5,53,4,5.9
 2003/01/03, 9:15,6.5,53,4,5.9
 2003/01/03, 9:30,6.5,53,3.8,5.8
 2003/01/03, 9:45,6.4,53,3.8,5.8
 2003/01/03,10:00,6.4,54,3.8,5.8
 2003/01/03,10:15,6.5,54,3.9,5.8
 2003/01/03,10:30,6.4,54,4,5.7
 2003/01/03,10:45,6.4,54,4,5.7
 2003/01/03,11:00,6.4,54,4,5.7
 2003/01/03,11:15,6.4,54,4,5.7
 2003/01/03,11:30,6.5,54,4,5.7
 2003/01/03,11:45,6.4,55,4,5.6
 2003/01/03,12:00,6.4,55,4,5.6
 2003/01/03,12:15,6.5,55,4,5.6
 2003/01/03,12:30,6.5,56,4.2,5.6
 2003/01/03,12:45,6.5,56,4.2,5.6
 2003/01/03,13:00,6.5,56,4.2,5.6
 2003/01/03,13:15,6.5,57,4.3,5.5
 2003/01/03,13:30,6.5,57,4.2,5.5
 2003/01/03,13:45,6.6,57,4.3,5.5
 2003/01/03,14:00,6.6,58,4.3,5.5
 2003/01/03,14:15,6.5,58,4.3,5.5
 2003/01/03,14:30,6.6,58,4.3,5.5
 2003/01/03,14:45,6.6,58,4.4,5.5
 2003/01/03,15:00,6.6,58,4.4,5.5
 2003/01/03,15:15,6.6,59,4.4,5.5
 2003/01/03,15:30,6.6,59,4.4,5.4
 2003/01/03,15:45,6.6,59,4.4,5.4
 2003/01/03,16:00,6.6,60,4.4,5.4
 2003/01/03,16:15,6.6,60,4.4,5.4
 2003/01/03,16:30,6.7,60,4.6,5.4
 2003/01/03,16:45,6.7,60,4.5,5.4
 2003/01/03,17:00,6.6,61,4.6,5.4
 2003/01/03,17:15,6.7,61,4.6,5.4
 2003/01/03,17:30,6.7,61,4.6,5.4
 2003/01/03,17:45,6.7,61,4.6,5.4
 2003/01/03,18:00,6.7,61,4.7,5.4
 2003/01/03,18:15,6.7,61,4.7,5.4
 2003/01/03,18:30,6.7,61,4.7,5.4
 2003/01/03,18:45,6.7,62,4.8,5.4
 2003/01/03,19:00,6.7,62,4.8,5.3
 2003/01/03,19:15,6.8,62,4.8,5.3
 2003/01/03,19:30,6.7,62,4.8,5.3
 2003/01/03,19:45,6.9,62,4.9,5.3
 2003/01/03,20:00,6.8,62,4.8,5.3
 2003/01/03,20:15,9.1,61,5.2,5.5
 2003/01/03,20:30,11.9,51,6.1,6.8
 2003/01/03,20:45,13.2,48,6.8,6.8
 2003/01/03,21:00,14.2,45,7.5,7
 2003/01/03,21:15,15.2,43,8.1,7.7
 2003/01/03,21:30,16.2,43,8.6,7.7
 2003/01/03,21:45,17,41,9.1,7.7
 2003/01/03,22:00,17.8,40,9.9,7.5
 2003/01/03,22:15,18.4,41,10.3,7.4
 2003/01/03,22:30,18.9,40,10.9,7.3
 2003/01/03,22:45,19.3,39,11,7.6
 2003/01/03,23:00,19.5,38,11.4,8.5
 2003/01/03,23:15,19.7,38,11.9,8.5
 2003/01/03,23:30,20,40,12.4,7.5
 2003/01/03,23:45,20,43,12.6,7.5
 2003/01/04, 0:00,20.2,43,13,7.5
 2003/01/04, 0:15,18.5,47,13,7.5
 2003/01/04, 0:30,19.7,54,13.1,7.5
 2003/01/04, 0:45,20.6,47,13.5,7.5
 2003/01/04, 1:00,20.8,47,13.7,7.6
 2003/01/04, 1:15,19,49,13.6,7.6
 2003/01/04, 1:30,16.7,53,12.8,7.7
 2003/01/04, 1:45,15.9,57,12.4,7.8
 2003/01/04, 2:00,15.4,58,12.4,7.8
 2003/01/04, 2:15,15.1,59,12.3,7.8
 2003/01/04, 2:30,14.8,59,12.1,7.8
 2003/01/04, 2:45,14.4,60,11.9,7.9
 2003/01/04, 3:00,14.2,60,11.7,7.9
 2003/01/04, 3:15,14,61,11.5,7.9
 2003/01/04, 3:30,13.7,61,11.5,7.9
 2003/01/04, 3:45,13.5,62,11.2,7.9
 2003/01/04, 4:00,13.4,62,11.1,7.9
 2003/01/04, 4:15,13.3,62,11,7.9
 2003/01/04, 4:30,13.1,63,10.9,7.9
 2003/01/04, 4:45,13,62,10.8,8
 2003/01/04, 5:00,12.8,62,10.6,8
 2003/01/04, 5:15,12.7,62,10.3,8
 2003/01/04, 5:30,12.6,62,10.2,8
 2003/01/04, 5:45,12.5,62,10.1,8
 2003/01/04, 6:00,12.4,62,10,8
 2003/01/04, 6:15,12.2,62,9.9,8
 2003/01/04, 6:30,12.1,62,9.9,8.1
 2003/01/04, 6:45,12,63,9.8,8.1
 2003/01/04, 7:00,12,62,9.8,7.2
 2003/01/04, 7:15,15.2,53,9.5,7.2
 2003/01/04, 7:30,16.4,50,9.3,7.2
 2003/01/04, 7:45,16.9,48,9.2,7.2
 2003/01/04, 8:00,14.6,51,9,7.3
 2003/01/04, 8:15,16.6,49,9,8.3
 2003/01/04, 8:30,18.3,45,8.9,8.3
 2003/01/04, 8:45,18.9,42,8.9,8.3
 2003/01/04, 9:00,19,40,9,8.3
 2003/01/04, 9:15,18.4,38,9,8.3
 2003/01/04, 9:30,15.5,45,9,8.3
 2003/01/04, 9:45,19,39,9,8.3
 2003/01/04,10:00,19.9,37,9.2,7.4
 2003/01/04,10:15,20.4,38,9.1,7.4
 2003/01/04,10:30,20.7,36,9.1,7.8
 2003/01/04,10:45,20.9,33,9.4,7.8
 2003/01/04,11:00,21.4,30,9.5,7.8
 2003/01/04,11:15,21.8,28,9.6,7.8
 2003/01/04,11:30,21.8,28,9.6,7.9
 2003/01/04,11:45,21.8,29,10,7.9
 2003/01/04,12:00,22.2,28,10.1,7.3
 2003/01/04,12:15,22.3,28,10.2,7.3
 2003/01/04,12:30,21.3,29,10.2,7.3
 2003/01/04,12:45,21.1,27,10.2,7.4
 2003/01/04,13:00,21.3,29,10,7
 2003/01/04,13:15,21.5,32,9.9,7.2
 2003/01/04,13:30,22.2,34,10.3,7.2
 2003/01/04,13:45,22.2,33,11,7.2
 2003/01/04,14:00,22.1,32,10.5,7.2
 2003/01/04,14:15,22.4,32,10.3,7.4
 2003/01/04,14:30,22.7,31,10.5,7.2
 2003/01/04,14:45,22.4,31,10.4,7.4
 2003/01/04,15:00,22.3,31,10.4,7.4
 2003/01/04,15:15,22.8,30,10.2,7.3
 2003/01/04,15:30,23.3,30,10.7,7.4
 2003/01/04,15:45,23.2,30,10.5,7.4
 2003/01/04,16:00,23.1,31,10.3,7.4
 2003/01/04,16:15,23.2,31,10.4,7.5
 2003/01/04,16:30,22,35,10.6,7.5
 2003/01/04,16:45,22.2,34,10.5,7.6
 2003/01/04,17:00,21.2,59,10.5,7.6
 2003/01/04,17:15,20.7,41,11.7,7.7
 2003/01/04,17:30,21.2,46,12.4,7.7
 2003/01/04,17:45,21,43,12.8,7.6
 2003/01/04,18:00,20.1,44,13.1,7.6
 2003/01/04,18:15,20.3,41,13.3,7.4
 2003/01/04,18:30,20.7,39,13.3,7.5
 2003/01/04,18:45,20.6,38,13.5,7.5
 2003/01/04,19:00,20.8,37,13.5,7.6
 2003/01/04,19:15,19.7,41,13.5,7.6
 2003/01/04,19:30,20.2,45,13.6,7.9
 2003/01/04,19:45,20.1,41,13.6,8.2
 2003/01/04,20:00,20.1,41,13.6,8.3
 2003/01/04,20:15,19.9,40,13.7,8.3
 2003/01/04,20:30,20.5,38,13.6,8.4
 2003/01/04,20:45,20.5,38,13.8,8.4
 2003/01/04,21:00,20.5,37,13.8,8.4
 2003/01/04,21:15,20.4,39,13.8,8.5
 2003/01/04,21:30,19.2,39,13.6,7.9
 2003/01/04,21:45,20.2,38,13.7,7.9
 2003/01/04,22:00,20.4,37,13.7,7.5
 2003/01/04,22:15,20.8,36,13.9,7.6
 2003/01/04,22:30,20.5,36,13.9,7.6
 2003/01/04,22:45,20.8,35,14,7.7
 2003/01/04,23:00,21.4,35,14.1,7.7
 2003/01/04,23:15,21.8,34,14.2,7.5
 2003/01/04,23:30,22,34,14.3,7.6
 2003/01/04,23:45,22,34,14.3,7.6
 2003/01/05, 0:00,22.2,34,14.6,7.6
 2003/01/05, 0:15,22.5,34,14.8,7.7
 2003/01/05, 0:30,19.7,39,14.5,7.7
 2003/01/05, 0:45,22.1,35,14.7,7.8
 2003/01/05, 1:00,22.4,35,14.9,7.8
 2003/01/05, 1:15,22.7,34,15.1,7.9
 2003/01/05, 1:30,22.6,34,15.2,7.9
 2003/01/05, 1:45,20.6,37,14.4,7.8
 2003/01/05, 2:00,18.8,41,19.5,7.8
 2003/01/05, 2:15,18.4,41,16.3,7.9
 2003/01/05, 2:30,17.9,42,15.2,7.9
 2003/01/05, 2:45,17.5,43,14.5,7.9
 2003/01/05, 3:00,17.1,44,14.2,8
 2003/01/05, 3:15,16.8,44,13.9,8
 2003/01/05, 3:30,16.5,44,13.6,8
 2003/01/05, 3:45,16.3,44,13.4,8.1
 2003/01/05, 4:00,16.1,44,13.2,8.1
 2003/01/05, 4:15,15.7,45,13,8.1
 2003/01/05, 4:30,15.5,45,12.6,8.2
 2003/01/05, 4:45,15.3,44,12.4,8.2
 2003/01/05, 5:00,15.2,44,12.2,8.3
 2003/01/05, 5:15,14.8,44,12.1,8.3
 2003/01/05, 5:30,14.5,44,11.9,8.3
 2003/01/05, 5:45,14.5,44,11.7,8.3
 2003/01/05, 6:00,14.3,44,11.5,8.4
 2003/01/05, 6:15,14.1,44,11.5,8.4
 2003/01/05, 6:30,13.9,44,11.2,8.4
 2003/01/05, 6:45,13.8,44,11.1,8.5
 2003/01/05, 7:00,13.6,44,11,8.5
 2003/01/05, 7:15,13.4,44,10.9,8.5
 2003/01/05, 7:30,13.3,44,10.9,8.5
 2003/01/05, 7:45,13.1,42,11,8.6
 2003/01/05, 8:00,13,43,10.8,8.6
 2003/01/05, 8:15,12.8,42,10.7,8.6
 2003/01/05, 8:30,12.8,41,10.6,8.6
 2003/01/05, 8:45,12.6,41,10.5,8.6
 2003/01/05, 9:00,14.4,45,10.8,7.4
 2003/01/05, 9:15,17,43,11.3,7.4
 2003/01/05, 9:30,14.7,48,11.1,7.4
 2003/01/05, 9:45,17.5,40,11.7,7.5
 2003/01/05,10:00,18.5,36,12.2,7.1
 2003/01/05,10:15,19.4,36,12.9,6.9
 2003/01/05,10:30,19.6,35,13.2,7
 2003/01/05,10:45,20.4,35,13.8,7
 2003/01/05,11:00,20.1,31,13.8,6.9
 2003/01/05,11:15,19,35,13.8,6.9
 2003/01/05,11:30,20.2,32,14.2,6.9
 2003/01/05,11:45,20.7,31,14.4,6.9
 2003/01/05,12:00,20.8,30,14.5,6.9
 2003/01/05,12:15,21,30,14.9,6.9
 2003/01/05,12:30,21.7,30,15.5,7
 2003/01/05,12:45,20.9,33,15.4,7.2
 2003/01/05,13:00,21.9,29,15.8,7.4
 2003/01/05,13:15,22.1,30,16.1,7.4
 2003/01/05,13:30,22.1,29,16,7.4
 2003/01/05,13:45,22.1,28,15.8,7.5
 2003/01/05,14:00,22.5,27,16,7.5
 2003/01/05,14:15,22.4,26,16.2,7.6
 2003/01/05,14:30,21.9,27,16.1,7.6
 2003/01/05,14:45,22,26,16.1,7.6
 2003/01/05,15:00,21.6,26,16,7.7
 2003/01/05,15:15,21.4,27,15.9,7.4
 2003/01/05,15:30,20.9,28,15.8,7.4
 2003/01/05,15:45,21,27,15.7,7.5
 2003/01/05,16:00,21.1,27,15.8,7.5
 2003/01/05,16:15,21.4,29,16.1,7.5
 2003/01/05,16:30,21.3,28,15.9,7.6
 2003/01/05,16:45,20.8,27,15.9,7.6
 2003/01/05,17:00,19.2,29,15.6,7.7
 2003/01/05,17:15,20.7,30,15.6,6.8
 2003/01/05,17:30,20.3,30,15.6,6.9
 2003/01/05,17:45,20.7,31,15.7,6.9
 2003/01/05,18:00,20.8,31,15.7,7
 2003/01/05,18:15,20.8,30,15.5,8.1
 2003/01/05,18:30,20.8,30,15.4,8.1
 2003/01/05,18:45,20.4,30,15.1,8.1
 2003/01/05,19:00,20.7,29,15.2,8.2
 2003/01/05,19:15,20.9,29,15.3,8.2
 2003/01/05,19:30,21.1,28,15.3,7.6
 2003/01/05,19:45,21.6,29,15.4,7.5
 2003/01/05,20:00,20.3,36,15,7.6
 2003/01/05,20:15,21.2,34,15.1,7.6
 2003/01/05,20:30,21.3,34,15,7.6
 2003/01/05,20:45,21.2,33,14.9,7.7
 2003/01/05,21:00,21.2,32,14.9,7.7
 2003/01/05,21:15,21,32,14.9,7.8
 2003/01/05,21:30,21.2,31,14.6,7.2
 2003/01/05,21:45,21.3,30,14.7,6.8
 2003/01/05,22:00,21.5,31,14.8,6.9
 2003/01/05,22:15,21,31,14.9,6.9
 2003/01/05,22:30,21.3,30,14.8,6.7
 2003/01/05,22:45,21.6,29,15.1,6.7
 2003/01/05,23:00,21.8,32,15.3,6.7
 2003/01/05,23:15,22,32,15.5,6.8
 2003/01/05,23:30,22,33,15.6,6.8
 2003/01/05,23:45,20.9,36,15.1,6.8
 2003/01/06, 0:00,21.1,36,15.2,6.8
 2003/01/06, 0:15,21.9,33,15.2,6.9
 2003/01/06, 0:30,22,32,15.4,7
 2003/01/06, 0:45,22,31,15.5,7
 2003/01/06, 1:00,22,31,15.6,7
 2003/01/06, 1:15,20.3,34,15.4,7.1
 2003/01/06, 1:30,21.3,33,15.1,7.1
 2003/01/06, 1:45,21.4,33,15.1,7.2
 2003/01/06, 2:00,19.5,38,14.7,8.1
 2003/01/06, 2:15,18.3,41,13.8,8.2
 2003/01/06, 2:30,17.8,42,13.7,8.2
 2003/01/06, 2:45,17.4,42,12.9,8.2
 2003/01/06, 3:00,16.9,43,12.6,8.2
 2003/01/06, 3:15,16.6,43,12.3,8.3
 2003/01/06, 3:30,16.3,42,12.1,8.3
 2003/01/06, 3:45,16.2,42,11.8,8.3
 2003/01/06, 4:00,15.7,43,11.7,8.3
 2003/01/06, 4:15,15.5,43,11.5,8.4
 2003/01/06, 4:30,15.4,43,11.2,8.4
 2003/01/06, 4:45,15.2,43,11,8.4
 2003/01/06, 5:00,14.9,43,10.8,8.4
 2003/01/06, 5:15,14.7,43,10.7,8.4
 2003/01/06, 5:30,14.6,43,10.6,8.5
 2003/01/06, 5:45,14.3,43,10.4,8.5
 2003/01/06, 6:00,14.2,43,10.4,8.5
 2003/01/06, 6:15,14.1,43,10.1,8.5
 2003/01/06, 6:30,14,43,10,8.6
 2003/01/06, 6:45,13.7,43,9.8,8.6
 2003/01/06, 7:00,13.6,43,9.6,8.6
 2003/01/06, 7:15,13.4,43,9.5,8.6
 2003/01/06, 7:30,13.2,43,9.5,8.6
 2003/01/06, 7:45,13.1,43,9.3,8.6
 2003/01/06, 8:00,13,44,9.1,8.7
 2003/01/06, 8:15,12.9,44,9.1,8.7
 2003/01/06, 8:30,12.8,44,9.3,8.7
 2003/01/06, 8:45,13,46,9.1,6.7
 2003/01/06, 9:00,13.6,43,9,6.7
 2003/01/06, 9:15,13.5,43,9,6.7
 2003/01/06, 9:30,13.5,43,9,6.8
 2003/01/06, 9:45,13.6,45,9.7,6.8
 2003/01/06,10:00,13.6,46,9.9,7.3
 2003/01/06,10:15,13.4,47,10,7.7
 2003/01/06,10:30,13.5,47,10.2,7.3
 2003/01/06,10:45,13.6,49,10.5,7.3
 2003/01/06,11:00,13.7,48,10.9,7.4
 2003/01/06,11:15,13.9,48,11.4,7.4
 2003/01/06,11:30,14,45,11.4,7.4
 2003/01/06,11:45,14.2,43,11.7,7.4
 2003/01/06,12:00,14.7,67,12.1,7.5
 2003/01/06,12:15,14.9,48,12.2,7.5
 2003/01/06,12:30,14.9,44,12.6,7.5
 2003/01/06,12:45,16.7,80,12.9,7.6
 2003/01/06,13:00,15.8,42,13.3,7.6
 2003/01/06,13:15,16.3,42,13.6,6.8
 2003/01/06,13:30,16.4,40,13.7,6.8
 2003/01/06,13:45,15.9,41,13.5,6.8
 2003/01/06,14:00,15.5,42,13.4,7.3
 2003/01/06,14:15,15.3,42,13.2,7.3
 2003/01/06,14:30,15.1,42,13.2,7.4
 2003/01/06,14:45,15.1,41,13.2,7.4
 2003/01/06,15:00,15.2,41,13.3,7.4
 2003/01/06,15:15,15,41,13.1,7.5
 2003/01/06,15:30,14.9,42,13.1,6.4
 2003/01/06,15:45,15.2,41,13.5,6.4
 2003/01/06,16:00,15.3,42,14,6.7
 2003/01/06,16:15,15.6,50,14.1,6.9
 2003/01/06,16:30,15.3,48,13.9,6.9
 2003/01/06,16:45,15.4,45,13.7,6.9
 2003/01/06,17:00,17.4,82,13.6,6.5
 2003/01/06,17:15,16,43,13.4,7.5
 2003/01/06,17:30,15.8,53,13.5,8.3
 2003/01/06,17:45,16.2,50,13.5,8.4
 2003/01/06,18:00,16.2,51,13.4,7
 2003/01/06,18:15,16.3,53,13.5,6.7
 2003/01/06,18:30,15.7,54,13.2,6.9
 2003/01/06,18:45,15.7,54,13,6.9
 2003/01/06,19:00,15.6,53,12.9,6.9
 2003/01/06,19:15,17.3,47,12.9,7
 2003/01/06,19:30,18.7,44,13.3,7
 2003/01/06,19:45,19.5,44,13.6,7.1
 2003/01/06,20:00,18,46,13.6,7.1
 2003/01/06,20:15,19.9,41,14.3,7.4
 2003/01/06,20:30,20.4,39,14.6,7.5
 2003/01/06,20:45,19,43,14.4,7.6
 2003/01/06,21:00,19.7,43,14.2,7.6
 2003/01/06,21:15,19.9,42,12.9,7.6
 2003/01/06,21:30,20.2,43,12.4,7.4
 2003/01/06,21:45,19.7,45,12.1,6.9
 2003/01/06,22:00,21.8,40,11.9,7
 2003/01/06,22:15,21.8,40,11.6,6.9
 2003/01/06,22:30,19.7,47,11.2,6.9
 2003/01/06,22:45,21.9,44,11,7
 2003/01/06,23:00,22.2,41,10.8,7
 2003/01/06,23:15,21.4,42,10.6,7
 2003/01/06,23:30,21.8,42,10.5,7.1
 2003/01/06,23:45,22.4,39,10.3,7.1
 2003/01/07, 0:00,22.4,39,10.2,7.2
 2003/01/07, 0:15,20.5,41,10.1,7.2
 2003/01/07, 0:30,22.3,39,9.9,7.3
 2003/01/07, 0:45,22.5,37,9.9,6.6
 2003/01/07, 1:00,22.4,37,10.8,6.6
 2003/01/07, 1:15,20.5,42,10.1,6.6
 2003/01/07, 1:30,22,38,9.9,6.7
 2003/01/07, 1:45,22.2,37,9.9,6.7
 2003/01/07, 2:00,21.7,36,9.9,6.8
 2003/01/07, 2:15,21.1,39,9.7,6.8
 2003/01/07, 2:30,21.9,36,9.7,6.9
 2003/01/07, 2:45,22,35,9.5,6.9
 2003/01/07, 3:00,20.5,38,9.5,6.4
 2003/01/07, 3:15,18.7,41,9.3,6.5
 2003/01/07, 3:30,18.2,42,9.5,6.6
 2003/01/07, 3:45,17.6,43,9.3,6.6
 2003/01/07, 4:00,17.4,43,9.2,6.7
 2003/01/07, 4:15,16.9,43,9,6.7
 2003/01/07, 4:30,16.6,44,8.9,6.8
 2003/01/07, 4:45,16.4,44,8.8,6.4
 2003/01/07, 5:00,16.3,44,8.7,6.5
 2003/01/07, 5:15,16,44,8.6,6.5
 2003/01/07, 5:30,15.8,44,8.5,6.5
 2003/01/07, 5:45,15.7,44,8.4,6.6
 2003/01/07, 6:00,15.4,44,8.4,6.6
 2003/01/07, 6:15,15.2,44,8.1,6.7
 2003/01/07, 6:30,15.1,44,8.1,6.7
 2003/01/07, 6:45,14.9,44,8.1,6.3
 2003/01/07, 7:00,14.8,44,8.3,6.5
 2003/01/07, 7:15,14.5,44,8.1,6.6
 2003/01/07, 7:30,14.5,44,8.1,6.6
 2003/01/07, 7:45,14.6,46,7.8,6.7
 2003/01/07, 8:00,14.7,45,7.8,6.7
 2003/01/07, 8:15,14.9,44,7.8,6.7
 2003/01/07, 8:30,14.8,44,7.6,6.6
 2003/01/07, 8:45,14.6,44,7.6,6.7
 2003/01/07, 9:00,14.6,45,7.7,6.7
 2003/01/07, 9:15,14.6,47,7.8,6.3
 2003/01/07, 9:30,14.9,52,7.9,6.4
 2003/01/07, 9:45,15.4,54,8,6.4
 2003/01/07,10:00,15.2,50,9.1,7.4
 2003/01/07,10:15,15.1,48,8.7,7.4
 2003/01/07,10:30,15.1,46,9,7.4
 2003/01/07,10:45,15.2,47,9.5,7.5
 2003/01/07,11:00,15.3,44,9.5,6.5
 2003/01/07,11:15,15.5,42,9.6,6.6
 2003/01/07,11:30,15.8,38,9.7,6.6
 2003/01/07,11:45,15.6,40,11.2,6.6
 2003/01/07,12:00,16.1,43,12.1,6.3
 2003/01/07,12:15,16.4,40,12.1,6.3
 2003/01/07,12:30,16.6,41,12.5,6.4
 2003/01/07,12:45,17,40,12.7,6.6
 2003/01/07,13:00,17.4,39,13.1,7.6
 2003/01/07,13:15,17.7,39,13.4,7.6
 2003/01/07,13:30,17.8,38,13.7,7.7
 2003/01/07,13:45,18.5,38,13.7,6.7
 2003/01/07,14:00,21.3,35,14.7,6.7
 2003/01/07,14:15,21.4,31,14.8,6.7
 2003/01/07,14:30,21.9,28,15.4,6.7
 2003/01/07,14:45,21.7,26,15.8,6.8
 2003/01/07,15:00,22,29,16.2,6.8
 2003/01/07,15:15,22.6,29,16.7,6.8
 2003/01/07,15:30,22.8,30,17.2,6.8
 2003/01/07,15:45,22.8,30,17.5,6.9
 2003/01/07,16:00,22.8,30,17.9,6.9
 2003/01/07,16:15,23.1,30,17.9,7
 2003/01/07,16:30,23.5,29,17.8,7
 2003/01/07,16:45,23.6,29,17.9,7.1
 2003/01/07,17:00,23.5,30,18.2,6.4
 2003/01/07,17:15,22.2,32,17.7,6.7
 2003/01/07,17:30,22.1,32,17.8,6.7
 2003/01/07,17:45,22.4,33,17.6,6.9
 2003/01/07,18:00,22.9,32,17.7,7.3
 2003/01/07,18:15,21.6,35,17.3,7.1
 2003/01/07,18:30,22.7,31,17.4,7.2
 2003/01/07,18:45,22.8,31,17.4,7.2
 2003/01/07,19:00,22.8,30,17.4,7
 2003/01/07,19:15,22.7,30,17.4,7.2
 2003/01/07,19:30,22.4,31,17.1,6.6
 2003/01/07,19:45,22.5,31,17.1,6.8
 2003/01/07,20:00,22.9,34,17.3,6.8
 2003/01/07,20:15,23,36,17.2,6.9
 2003/01/07,20:30,23,35,17.3,6.9
 2003/01/07,20:45,22.9,35,17.3,7
 2003/01/07,21:00,22.3,36,16.9,6.5
 2003/01/07,21:15,22.7,34,17,6.8
 2003/01/07,21:30,22.9,34,17.2,6.8
 2003/01/07,21:45,22.9,33,17.2,6.9
 2003/01/07,22:00,21.2,38,16.7,7.1
 2003/01/07,22:15,23,31,17.1,7.1
 2003/01/07,22:30,23,30,17.1,7.1
 2003/01/07,22:45,22.7,31,17,7.2
 2003/01/07,23:00,22.1,34,16.5,7.3
 2003/01/07,23:15,23.2,31,16.8,7
 2003/01/07,23:30,23.2,31,16.9,7
 2003/01/07,23:45,21.2,36,16.3,7.1
 2003/01/08, 0:00,23,32,16.7,7.1
 2003/01/08, 0:15,23.1,33,16.7,7.2
 2003/01/08, 0:30,20.8,38,16.3,7.2
 2003/01/08, 0:45,22.8,33,16.5,7.3
 2003/01/08, 1:00,23.1,31,16.8,7.3
 2003/01/08, 1:15,21.3,35,16.4,7.4
 2003/01/08, 1:30,19.5,38,15.8,6.7
 2003/01/08, 1:45,19,38,15.5,6.7
 2003/01/08, 2:00,18.5,39,15.1,6.7
 2003/01/08, 2:15,18.1,39,14.9,6.8
 2003/01/08, 2:30,17.8,39,14.6,6.8
 2003/01/08, 2:45,17.4,39,14.3,6.9
 2003/01/08, 3:00,17.2,39,14.1,7
 2003/01/08, 3:15,16.8,40,13.8,7
 2003/01/08, 3:30,16.5,40,13.6,7
 2003/01/08, 3:45,16.4,40,13.4,7.1
 2003/01/08, 4:00,16.1,40,13.1,7.2
 2003/01/08, 4:15,15.9,40,12.9,7.2
 2003/01/08, 4:30,15.6,40,12.7,7.3
 2003/01/08, 4:45,15.5,40,12.6,7.3
 2003/01/08, 5:00,15.3,40,12.4,7.4
 2003/01/08, 5:15,15,41,12.3,7.4